Location: The Saddle
(36.8333°N, 80.3417°W)
Time: 13:53:47
(UTC-04:00)

SR - Pass Details

Date: 31 May 2024
Orbit: 580 x 858 km, 66.7° (Epoch: 14 June)

Event Time Altitude Azimuth Distance (km) Brightness Sun altitude
Rises 00:50:55 0° 349° (N) 2,835 ? -30.8°
Reaches altitude 10° 00:53:59 10° 12° (NNE) 1,908 ? -30.9°
Enters shadow 00:56:32 16° 49° (NE) 1,568 ? -30.9°
